Regional Weather Roundup
Issued by NWS

Home | Current Version | Previous Version | Text Only | Print | Product List | Glossary On
Versions: 1 2 3 4 5 6 7 8 9 10 11 12 13 14 15 16 17 18 19 20 21 22 23 24 25 26 27 28 29 30 31 32 33 34 35 36 37 38 39 40 41 42 43 44 45 46 47 48 49 50
000
ASUS45 KABQ 311510
RWRNM
NEW MEXICO REGIONAL WEATHER ROUNDUP
NATIONAL WEATHER SERVICE ALBUQUERQUE NM
900 AM MDT MON AUG 31 2015

NOTE: "FAIR" MEANS FEW OR NO CLOUDS BELOW 12,000 FEET AGL WITH NO
       SIGNIFICANT WEATHER OR OBSTRUCTIONS TO VISION.

      THIS PRODUCT IS RELEASED AS TWO VERSIONS.  ONE VERSION NEAR
      THE TOP OF THE HOUR CONTAINING PRELIMINARY DATA FROM ALBUQUERQUE
      AND OTHER STATIONS.  A FINAL VERSION WITH ADDITIONAL DATA IS
      ISSUED ABOUT 10 MINUTES AFTER THE HOUR.

NMZ501-503-504-510>518-311600-
NORTHWEST PLATEAU/NORTHCENTRAL MOUNTAINS

CITY           SKY/WX    TMP DP  RH WIND       PRES   REMARKS
FARMINGTON     MOSUNNY   68  53  58 E3        30.20S
LOS ALAMOS     MOSUNNY   66  47  49 NE3       30.32S
SANTA FE       SUNNY     73  46  38 N7        30.25R
TAOS           MOSUNNY   64  39  39 CALM      30.33S
ANGEL FIRE     FAIR      53  47  80 CALM      30.40S

$$
NMZ402-403-502-505>509-311600-
WESTCENTRAL MOUNTAINS/SOUTHWEST MOUNTAINS

CITY           SKY/WX    TMP DP  RH WIND       PRES   REMARKS
GALLUP         MOSUNNY   65  52  62 NE7       30.29R
GRANTS         MOSUNNY   65  53  65 NW5       30.31S
SILVER CITY      N/A     75  54  46 NW6       30.21S

$$
NMZ407-409-411-412-311600-
SOUTHERN DESERTS

CITY           SKY/WX    TMP DP  RH WIND       PRES   REMARKS
LORDSBURG      FAIR      72  59  64 CALM      30.13S
DEMING         SUNNY     74  56  53 CALM      30.12R
LAS CRUCES     SUNNY     76  46  34 CALM      30.14S
HOLLOMAN AFB   SUNNY     74  48  38 S2        30.09F
ALAMOGORDO     SUNNY     73  48  40 CALM      30.12F
T OR C         SUNNY     78  51  38 W7        30.14S

$$
NMZ519>523-311600-
CENTRAL VALLEYS/CENTRAL HIGHLANDS

CITY           SKY/WX    TMP DP  RH WIND       PRES   REMARKS
ALBUQUERQUE    MOSUNNY   74  49  41 CALM      30.21S
DOUBLE EAGLE   MOSUNNY   75  50  41 N8        30.24R
MORIARTY ARPT  FAIR      67  48  50 N3        30.25F
CLINES CORNERS SUNNY     68  48  48 W15       30.27R
BELEN          FAIR      74  48  39 N6        30.20R
SOCORRO        FAIR      73  49  43 CALM      30.17S

$$
NMZ524>526-539-540-311600-
SOUTHCENTRAL MOUNTAINS

CITY           SKY/WX    TMP DP  RH WIND       PRES   REMARKS
RUIDOSO        SUNNY     70  50  49 MISG      30.29S

$$
NMZ527>531-311600-
NORTHEAST HIGHLANDS/NORTHEAST PLAINS

CITY           SKY/WX    TMP DP  RH WIND       PRES   REMARKS
LAS VEGAS      SUNNY     73  45  36 CALM      30.24S
RATON          MOSUNNY   68  50  52 NE3       30.17S
CLAYTON        SUNNY     78  53  41 W10       30.06R

$$
NMZ532>537-311600-
EASTCENTRAL PLAINS

CITY           SKY/WX    TMP DP  RH WIND       PRES   REMARKS
TUCUMCARI      SUNNY     77  51  40 SW16      30.05R
CANNON AFB     SUNNY     73  53  50 S9        30.11S
CLOVIS AIRPORT SUNNY     73  52  46 S14       30.12S

$$
NMZ028-029-538-311600-
SOUTHEAST PLAINS

CITY           SKY/WX    TMP DP  RH WIND       PRES   REMARKS
ROSWELL        MOSUNNY   74  55  51 S14       30.08S
ARTESIA        SUNNY     72  55  56 SE14      30.09S
CARLSBAD       NOT AVBL


$$


USA.gov is the U.S. government's official web portal to all federal, state and local government web resources and services.